Time,TemperatureF,DewpointF,PressureIn,WindDirection,WindDirectionDegrees,WindSpeedMPH,WindSpeedGustMPH,Humidity,HourlyPrecipIn,Conditions,Clouds,dailyrainin,SoftwareType,DateUTC
2014-09-01 00:00:00,73.6,70.2,29.74,South,180,4.4,4.4,89,0.00,,,0.00,WUHU21636XXSP,2014-09-01 05:00:00,
2014-09-01 00:05:00,73.8,70.3,29.74,South,180,0.0,4.4,89,0.00,,,0.00,WUHU21636XXSP,2014-09-01 05:05:00,
2014-09-01 00:10:00,73.8,70.3,29.74,South,180,0.0,4.4,89,0.00,,,0.00,WUHU21636XXSP,2014-09-01 05:10:00,
2014-09-01 00:15:00,73.8,70.3,29.73,SSE,157,0.4,0.4,89,0.00,,,0.00,WUHU21636XXSP,2014-09-01 05:15:00,
2014-09-01 00:20:00,73.9,70.5,29.74,South,180,0.0,4.9,89,0.00,,,0.00,WUHU21636XXSP,2014-09-01 05:20:00,
2014-09-01 00:25:00,73.9,70.5,29.74,South,180,3.8,4.9,89,0.00,,,0.00,WUHU21636XXSP,2014-09-01 05:25:00,
2014-09-01 00:30:00,73.9,70.5,29.74,SW,225,0.4,8.5,89,0.00,,,0.00,WUHU21636XXSP,2014-09-01 05:30:00,
2014-09-01 00:35:00,74.1,70.3,29.74,SW,225,2.9,8.5,88,0.00,,,0.00,WUHU21636XXSP,2014-09-01 05:35:00,
2014-09-01 00:40:00,74.1,70.3,29.74,SSW,202,0.0,6.4,88,0.00,,,0.00,WUHU21636XXSP,2014-09-01 05:40:00,
2014-09-01 00:45:00,74.1,70.3,29.73,South,183,1.6,2.9,87,0.00,,,0.00,WUHU21636XXSP,2014-09-01 05:45:00,
2014-09-01 00:50:00,74.1,70.3,29.73,SSW,202,0.0,2.0,87,0.00,,,0.00,WUHU21636XXSP,2014-09-01 05:50:00,
2014-09-01 00:55:00,74.1,70.0,29.73,SW,225,0.2,11.6,87,0.00,,,0.00,WUHU21636XXSP,2014-09-01 05:55:00,
2014-09-01 01:00:00,74.3,70.2,29.73,South,189,0.8,11.6,87,0.00,,,0.00,WUHU21636XXSP,2014-09-01 06:00:00,
2014-09-01 01:05:00,74.3,70.2,29.72,SSW,202,2.2,10.2,87,0.00,,,0.00,WUHU21636XXSP,2014-09-01 06:05:00,
2014-09-01 01:10:00,74.3,69.8,29.72,SSW,202,0.3,8.5,86,0.00,,,0.00,WUHU21636XXSP,2014-09-01 06:10:00,
2014-09-01 01:15:00,74.3,69.8,29.72,SSW,202,0.0,8.5,86,0.00,,,0.00,WUHU21636XXSP,2014-09-01 06:15:00,
2014-09-01 01:20:00,74.3,69.8,29.71,SSW,202,8.5,13.1,86,0.00,,,0.00,WUHU21636XXSP,2014-09-01 06:20:00,
2014-09-01 01:25:00,74.5,69.6,29.71,SSW,197,3.0,13.1,85,0.00,,,0.00,WUHU21636XXSP,2014-09-01 06:25:00,
2014-09-01 01:30:00,74.5,69.6,29.71,South,180,0.4,11.1,85,0.00,,,0.00,WUHU21636XXSP,2014-09-01 06:30:00,
2014-09-01 01:35:00,74.5,69.6,29.71,SSW,202,7.3,10.9,85,0.00,,,0.00,WUHU21636XXSP,2014-09-01 06:35:00,
2014-09-01 01:40:00,74.3,69.4,29.72,SSW,202,0.0,10.9,85,0.00,,,0.00,WUHU21636XXSP,2014-09-01 06:40:00,
2014-09-01 01:45:00,74.3,69.4,29.73,West,270,0.0,9.8,86,0.00,,,0.00,WUHU21636XXSP,2014-09-01 06:45:00,
2014-09-01 01:50:00,74.3,69.4,29.74,SW,225,1.5,3.5,86,0.00,,,0.00,WUHU21636XXSP,2014-09-01 06:50:00,
2014-09-01 01:55:00,74.5,70.0,29.74,West,270,4.9,4.9,86,0.00,,,0.00,WUHU21636XXSP,2014-09-01 06:55:00,
2014-09-01 02:00:00,74.5,70.0,29.74,West,270,0.0,4.9,86,0.00,,,0.00,WUHU21636XXSP,2014-09-01 07:00:00,
2014-09-01 02:06:00,74.5,70.0,29.73,WSW,247,3.8,9.6,86,0.00,,,0.00,WUHU21636XXSP,2014-09-01 07:06:00,
2014-09-01 02:11:00,74.3,69.4,29.72,SW,225,0.0,9.6,85,0.00,,,0.00,WUHU21636XXSP,2014-09-01 07:11:00,
2014-09-01 02:16:00,74.3,69.4,29.72,West,270,0.0,9.3,85,0.00,,,0.00,WUHU21636XXSP,2014-09-01 07:16:00,
2014-09-01 02:21:00,73.9,68.0,29.73,West,270,0.0,7.1,82,0.00,,,0.00,WUHU21636XXSP,2014-09-01 07:21:00,
2014-09-01 02:26:00,73.8,67.5,29.72,WSW,247,0.0,0.0,81,0.00,,,0.00,WUHU21636XXSP,2014-09-01 07:26:00,
2014-09-01 02:31:00,73.6,67.3,29.73,WSW,247,0.0,0.0,80,0.00,,,0.00,WUHU21636XXSP,2014-09-01 07:31:00,
2014-09-01 02:36:00,73.0,66.6,29.72,WSW,247,0.0,0.0,80,0.00,,,0.00,WUHU21636XXSP,2014-09-01 07:36:00,
2014-09-01 02:41:00,72.7,65.3,29.73,WSW,247,0.0,0.0,78,0.00,,,0.00,WUHU21636XXSP,2014-09-01 07:41:00,
2014-09-01 02:46:00,72.5,65.1,29.72,West,270,0.0,0.0,78,0.00,,,0.00,WUHU21636XXSP,2014-09-01 07:46:00,
2014-09-01 02:51:00,72.1,64.4,29.72,NNW,337,0.0,0.0,77,0.00,,,0.00,WUHU21636XXSP,2014-09-01 07:51:00,
2014-09-01 02:56:00,71.8,63.7,29.72,WNW,292,0.0,0.0,76,0.00,,,0.00,WUHU21636XXSP,2014-09-01 07:56:00,
2014-09-01 03:03:00,71.2,63.5,29.72,West,270,0.0,0.0,77,0.00,,,0.00,WUHU21636XXSP,2014-09-01 08:03:00,
2014-09-01 03:08:00,70.9,63.1,29.72,West,270,0.0,0.0,77,0.00,,,0.00,WUHU21636XXSP,2014-09-01 08:08:00,
2014-09-01 03:13:00,70.7,63.0,29.72,West,270,0.0,0.0,77,0.00,,,0.00,WUHU21636XXSP,2014-09-01 08:13:00,
2014-09-01 03:18:00,70.5,62.8,29.72,West,270,0.0,0.0,78,0.00,,,0.00,WUHU21636XXSP,2014-09-01 08:18:00,
2014-09-01 03:23:00,70.2,62.8,29.72,West,270,0.0,0.0,78,0.00,,,0.00,WUHU21636XXSP,2014-09-01 08:23:00,
2014-09-01 03:28:00,69.8,62.4,29.72,West,270,0.0,0.0,78,0.00,,,0.00,WUHU21636XXSP,2014-09-01 08:28:00,
2014-09-01 03:33:00,69.6,62.2,29.72,WSW,247,0.0,0.0,78,0.00,,,0.00,WUHU21636XXSP,2014-09-01 08:33:00,
2014-09-01 03:38:00,69.6,61.9,29.72,NNW,337,0.1,6.2,78,0.00,,,0.00,WUHU21636XXSP,2014-09-01 08:38:00,
2014-09-01 03:43:00,69.4,62.2,29.72,WSW,247,3.4,6.2,77,0.00,,,0.00,WUHU21636XXSP,2014-09-01 08:43:00,
2014-09-01 03:48:00,69.4,62.2,29.72,WSW,247,0.0,3.8,77,0.00,,,0.00,WUHU21636XXSP,2014-09-01 08:48:00,
2014-09-01 03:54:00,69.4,62.2,29.72,WSW,247,0.0,0.0,77,0.00,,,0.00,WUHU21636XXSP,2014-09-01 08:54:00,
2014-09-01 03:59:00,69.3,62.1,29.72,SW,225,0.0,0.0,78,0.00,,,0.00,WUHU21636XXSP,2014-09-01 08:59:00,
2014-09-01 04:04:00,69.1,61.9,29.72,WSW,247,1.7,1.7,78,0.00,,,0.00,WUHU21636XXSP,2014-09-01 09:04:00,
2014-09-01 04:09:00,69.1,61.9,29.72,SW,225,0.0,1.7,78,0.00,,,0.00,WUHU21636XXSP,2014-09-01 09:09:00,
2014-09-01 04:14:00,68.9,62.1,29.71,SSW,202,0.0,4.2,79,0.00,,,0.00,WUHU21636XXSP,2014-09-01 09:14:00,
2014-09-01 04:19:00,68.9,62.1,29.71,SSW,202,0.0,4.2,79,0.00,,,0.00,WUHU21636XXSP,2014-09-01 09:19:00,
2014-09-01 04:24:00,68.7,61.9,29.71,SW,225,2.9,2.9,79,0.00,,,0.00,WUHU21636XXSP,2014-09-01 09:24:00,
2014-09-01 04:29:00,68.7,61.9,29.70,West,270,0.0,2.9,80,0.00,,,0.00,WUHU21636XXSP,2014-09-01 09:29:00,
2014-09-01 04:34:00,68.5,62.1,29.69,WSW,247,0.0,2.9,80,0.00,,,0.00,WUHU21636XXSP,2014-09-01 09:34:00,
2014-09-01 04:39:00,68.5,62.1,29.69,WSW,247,0.0,0.0,81,0.00,,,0.00,WUHU21636XXSP,2014-09-01 09:39:00,
2014-09-01 04:44:00,68.5,62.1,29.68,SSW,202,0.0,0.0,81,0.00,,,0.00,WUHU21636XXSP,2014-09-01 09:44:00,
2014-09-01 04:51:00,68.4,62.2,29.68,South,180,0.0,0.0,81,0.00,,,0.00,WUHU21636XXSP,2014-09-01 09:51:00,
2014-09-01 04:56:00,68.4,62.2,29.67,SSE,157,0.0,0.0,81,0.00,,,0.00,WUHU21636XXSP,2014-09-01 09:56:00,
2014-09-01 05:01:00,68.2,62.4,29.67,SSE,157,0.0,0.0,82,0.00,,,0.00,WUHU21636XXSP,2014-09-01 10:01:00,
2014-09-01 05:06:00,68.2,62.4,29.67,SSW,202,0.0,0.0,82,0.00,,,0.00,WUHU21636XXSP,2014-09-01 10:06:00,
2014-09-01 05:11:00,68.2,62.4,29.65,SSW,202,0.0,0.0,82,0.00,,,0.00,WUHU21636XXSP,2014-09-01 10:11:00,
2014-09-01 05:16:00,68.2,62.4,29.65,SSW,202,0.0,0.0,82,0.00,,,0.00,WUHU21636XXSP,2014-09-01 10:16:00,
2014-09-01 05:21:00,68.0,62.6,29.64,SSW,202,0.0,0.0,83,0.00,,,0.00,WUHU21636XXSP,2014-09-01 10:21:00,
2014-09-01 05:26:00,67.8,62.4,29.63,South,180,0.0,0.0,83,0.00,,,0.00,WUHU21636XXSP,2014-09-01 10:26:00,
2014-09-01 05:31:00,67.8,62.4,29.61,SE,135,0.0,0.0,83,0.00,,,0.00,WUHU21636XXSP,2014-09-01 10:31:00,
2014-09-01 05:36:00,67.6,62.2,29.60,ESE,112,0.0,0.0,84,0.00,,,0.00,WUHU21636XXSP,2014-09-01 10:36:00,
2014-09-01 05:41:00,67.5,62.4,29.61,South,180,0.0,0.0,84,0.00,,,0.00,WUHU21636XXSP,2014-09-01 10:41:00,
2014-09-01 05:46:00,67.3,62.2,29.61,SSW,202,0.0,0.0,84,0.00,,,0.00,WUHU21636XXSP,2014-09-01 10:46:00,
2014-09-01 05:51:00,67.3,62.2,29.60,SSW,202,0.0,0.0,84,0.00,,,0.00,WUHU21636XXSP,2014-09-01 10:51:00,
2014-09-01 05:56:00,67.3,62.2,29.59,SSW,202,0.0,0.0,84,0.00,,,0.00,WUHU21636XXSP,2014-09-01 10:56:00,
2014-09-01 06:01:00,67.1,62.1,29.59,SSW,202,0.0,0.0,84,0.00,,,0.00,WUHU21636XXSP,2014-09-01 11:01:00,
2014-09-01 06:07:00,66.7,62.1,29.60,SSW,202,0.0,0.0,85,0.00,,,0.00,WUHU21636XXSP,2014-09-01 11:07:00,
2014-09-01 06:12:00,66.7,62.1,29.61,SW,225,0.0,0.0,85,0.00,,,0.00,WUHU21636XXSP,2014-09-01 11:12:00,
2014-09-01 06:17:00,66.6,62.1,29.60,SW,225,0.0,0.0,86,0.00,,,0.00,WUHU21636XXSP,2014-09-01 11:17:00,
2014-09-01 06:22:00,66.6,62.1,29.61,SSW,202,0.0,0.0,86,0.00,,,0.00,WUHU21636XXSP,2014-09-01 11:22:00,
2014-09-01 06:27:00,66.6,62.1,29.61,SSW,202,0.0,0.0,86,0.00,,,0.00,WUHU21636XXSP,2014-09-01 11:27:00,
2014-09-01 06:32:00,66.7,62.2,29.61,SSW,202,0.0,0.0,86,0.00,,,0.00,WUHU21636XXSP,2014-09-01 11:32:00,
2014-09-01 06:37:00,66.6,62.1,29.61,East,90,0.0,0.0,86,0.00,,,0.00,WUHU21636XXSP,2014-09-01 11:37:00,
2014-09-01 06:42:00,66.6,62.1,29.61,SE,135,0.0,0.0,86,0.00,,,0.00,WUHU21636XXSP,2014-09-01 11:42:00,
2014-09-01 06:47:00,66.6,62.1,29.61,SE,135,0.0,0.0,86,0.00,,,0.00,WUHU21636XXSP,2014-09-01 11:47:00,
2014-09-01 06:52:00,66.7,62.2,29.60,East,90,0.0,0.0,86,0.00,,,0.00,WUHU21636XXSP,2014-09-01 11:52:00,
2014-09-01 06:57:00,66.7,62.6,29.61,SE,135,0.0,0.0,87,0.00,,,0.00,WUHU21636XXSP,2014-09-01 11:57:00,
2014-09-01 07:02:00,66.7,62.6,29.60,SE,135,0.0,0.0,87,0.00,,,0.00,WUHU21636XXSP,2014-09-01 12:02:00,
2014-09-01 07:07:00,66.7,63.0,29.61,SE,135,3.8,3.8,88,0.00,,,0.00,WUHU21636XXSP,2014-09-01 12:07:00,
2014-09-01 07:12:00,66.7,63.0,29.62,SE,135,0.0,3.8,88,0.00,,,0.00,WUHU21636XXSP,2014-09-01 12:12:00,
2014-09-01 07:17:00,66.7,63.0,29.62,SSE,157,0.4,3.8,88,0.00,,,0.00,WUHU21636XXSP,2014-09-01 12:17:00,
2014-09-01 07:22:00,66.7,63.0,29.63,South,180,1.2,8.9,88,0.00,,,0.00,WUHU21636XXSP,2014-09-01 12:22:00,
2014-09-01 07:27:00,66.7,63.0,29.63,ESE,112,0.0,8.9,88,0.00,,,0.00,WUHU21636XXSP,2014-09-01 12:27:00,
2014-09-01 07:32:00,66.9,63.1,29.63,South,180,6.7,7.6,88,0.00,,,0.00,WUHU21636XXSP,2014-09-01 12:32:00,
2014-09-01 07:37:00,66.9,63.1,29.63,SW,225,3.5,7.6,88,0.00,,,0.00,WUHU21636XXSP,2014-09-01 12:37:00,
2014-09-01 07:42:00,66.9,63.1,29.64,WSW,247,0.0,6.7,88,0.00,,,0.00,WUHU21636XXSP,2014-09-01 12:42:00,
2014-09-01 07:47:00,66.9,63.1,29.64,West,270,0.0,3.5,88,0.00,,,0.00,WUHU21636XXSP,2014-09-01 12:47:00,
2014-09-01 07:52:00,67.1,63.3,29.65,SW,225,0.0,0.0,88,0.00,,,0.00,WUHU21636XXSP,2014-09-01 12:52:00,
2014-09-01 07:57:00,67.5,63.7,29.65,SW,225,0.3,0.4,88,0.00,,,0.00,WUHU21636XXSP,2014-09-01 12:57:00,
2014-09-01 08:02:00,67.6,63.9,29.65,SW,236,2.3,3.8,88,0.00,,,0.00,WUHU21636XXSP,2014-09-01 13:02:00,
2014-09-01 08:07:00,67.6,63.9,29.66,SW,225,0.0,3.8,88,0.00,,,0.00,WUHU21636XXSP,2014-09-01 13:07:00,
2014-09-01 08:12:00,67.8,63.7,29.66,West,270,0.0,1.7,87,0.00,,,0.00,WUHU21636XXSP,2014-09-01 13:12:00,
2014-09-01 08:17:00,68.2,64.0,29.66,SW,225,3.3,3.3,87,0.00,,,0.00,WUHU21636XXSP,2014-09-01 13:17:00,
2014-09-01 08:22:00,68.2,64.0,29.67,WSW,247,0.0,3.3,87,0.00,,,0.00,WUHU21636XXSP,2014-09-01 13:22:00,
2014-09-01 08:27:00,68.4,64.2,29.67,WSW,247,0.0,3.3,87,0.00,,,0.00,WUHU21636XXSP,2014-09-01 13:27:00,
2014-09-01 08:32:00,68.4,64.2,29.67,West,270,0.0,0.0,87,0.00,,,0.00,WUHU21636XXSP,2014-09-01 13:32:00,
2014-09-01 08:37:00,68.4,64.2,29.67,WSW,247,0.0,4.0,87,0.00,,,0.00,WUHU21636XXSP,2014-09-01 13:37:00,
2014-09-01 08:42:00,68.5,64.4,29.66,West,270,0.0,4.0,87,0.00,,,0.00,WUHU21636XXSP,2014-09-01 13:42:00,
2014-09-01 08:47:00,68.5,64.4,29.66,WSW,247,0.0,0.0,87,0.00,,,0.00,WUHU21636XXSP,2014-09-01 13:47:00,
2014-09-01 08:52:00,68.4,64.2,29.66,WSW,247,0.0,0.0,87,0.00,,,0.00,WUHU21636XXSP,2014-09-01 13:52:00,
2014-09-01 08:57:00,68.5,64.4,29.66,South,180,0.0,0.0,87,0.00,,,0.00,WUHU21636XXSP,2014-09-01 13:57:00,
2014-09-01 09:02:00,68.5,64.4,29.66,SW,225,0.0,0.0,87,0.00,,,0.00,WUHU21636XXSP,2014-09-01 14:02:00,
2014-09-01 09:07:00,68.5,64.4,29.66,WSW,247,0.0,0.0,87,0.00,,,0.00,WUHU21636XXSP,2014-09-01 14:07:00,
2014-09-01 09:12:00,68.7,64.6,29.66,West,270,0.0,0.0,87,0.00,,,0.00,WUHU21636XXSP,2014-09-01 14:12:00,
2014-09-01 09:17:00,68.7,64.6,29.66,SW,225,0.0,0.0,87,0.00,,,0.00,WUHU21636XXSP,2014-09-01 14:17:00,
2014-09-01 09:22:00,68.7,64.6,29.66,SW,225,0.0,0.2,87,0.00,,,0.00,WUHU21636XXSP,2014-09-01 14:22:00,
2014-09-01 09:27:00,68.7,64.6,29.66,WSW,247,0.0,0.2,87,0.00,,,0.00,WUHU21636XXSP,2014-09-01 14:27:00,
2014-09-01 09:32:00,68.7,64.6,29.66,WSW,247,0.0,0.0,87,0.00,,,0.00,WUHU21636XXSP,2014-09-01 14:32:00,
2014-09-01 09:37:00,69.1,64.6,29.66,SW,217,3.4,8.2,86,0.00,,,0.00,WUHU21636XXSP,2014-09-01 14:37:00,
2014-09-01 09:42:00,69.4,64.9,29.66,WNW,292,0.0,8.2,86,0.00,,,0.00,WUHU21636XXSP,2014-09-01 14:42:00,
2014-09-01 09:47:00,70.0,65.5,29.66,SW,225,3.7,3.8,86,0.00,,,0.00,WUHU21636XXSP,2014-09-01 14:47:00,
2014-09-01 09:52:00,70.3,65.1,29.67,WSW,247,9.1,14.5,84,0.00,,,0.00,WUHU21636XXSP,2014-09-01 14:52:00,
2014-09-01 09:58:00,71.1,65.5,29.68,SW,221,7.7,16.7,83,0.00,,,0.00,WUHU21636XXSP,2014-09-01 14:58:00,
2014-09-01 10:04:00,71.6,65.7,29.68,WSW,247,4.6,16.7,82,0.00,,,0.00,WUHU21636XXSP,2014-09-01 15:04:00,
2014-09-01 10:09:00,71.6,65.3,29.68,South,191,1.2,14.3,81,0.00,,,0.00,WUHU21636XXSP,2014-09-01 15:09:00,
2014-09-01 10:14:00,72.0,65.7,29.68,SSW,202,0.0,14.3,81,0.00,,,0.00,WUHU21636XXSP,2014-09-01 15:14:00,
2014-09-01 10:19:00,72.1,65.8,29.68,WSW,241,1.9,2.9,81,0.00,,,0.00,WUHU21636XXSP,2014-09-01 15:19:00,
2014-09-01 10:24:00,72.7,65.7,29.68,SW,226,6.9,19.2,79,0.00,,,0.00,WUHU21636XXSP,2014-09-01 15:24:00,
2014-09-01 10:29:00,73.2,66.2,29.68,SW,217,3.0,19.2,79,0.00,,,0.00,WUHU21636XXSP,2014-09-01 15:29:00,
2014-09-01 10:34:00,73.6,66.2,29.67,SW,225,8.0,13.4,78,0.00,,,0.00,WUHU21636XXSP,2014-09-01 15:34:00,
2014-09-01 10:39:00,73.9,66.6,29.67,WSW,241,2.3,13.4,78,0.00,,,0.00,WUHU21636XXSP,2014-09-01 15:39:00,
2014-09-01 10:44:00,74.1,66.7,29.66,SW,220,4.1,13.1,78,0.00,,,0.00,WUHU21636XXSP,2014-09-01 15:44:00,
2014-09-01 10:49:00,74.5,66.7,29.66,SW,223,5.3,13.6,77,0.00,,,0.00,WUHU21636XXSP,2014-09-01 15:49:00,
2014-09-01 10:54:00,75.0,66.6,29.66,SW,225,6.2,13.6,75,0.00,,,0.00,WUHU21636XXSP,2014-09-01 15:54:00,
2014-09-01 10:59:00,75.6,66.6,29.66,SW,218,4.8,12.3,74,0.00,,,0.00,WUHU21636XXSP,2014-09-01 15:59:00,
2014-09-01 11:04:00,75.9,66.6,29.66,WSW,247,8.0,14.9,73,0.00,,,0.00,WUHU21636XXSP,2014-09-01 16:04:00,
2014-09-01 11:09:00,76.3,66.9,29.66,SSW,202,2.3,14.9,73,0.00,,,0.00,WUHU21636XXSP,2014-09-01 16:09:00,
2014-09-01 11:14:00,76.1,66.4,29.66,SSW,202,9.3,18.1,72,0.00,,,0.00,WUHU21636XXSP,2014-09-01 16:14:00,
2014-09-01 11:19:00,76.1,66.4,29.66,WSW,238,1.2,18.1,72,0.00,,,0.00,WUHU21636XXSP,2014-09-01 16:19:00,
2014-09-01 11:24:00,75.9,66.2,29.66,SW,225,2.2,12.7,72,0.00,,,0.00,WUHU21636XXSP,2014-09-01 16:24:00,
2014-09-01 11:29:00,75.9,66.2,29.66,SW,225,0.0,6.9,73,0.00,,,0.00,WUHU21636XXSP,2014-09-01 16:29:00,
2014-09-01 11:34:00,75.7,66.0,29.66,WSW,247,8.7,19.6,72,0.00,,,0.00,WUHU21636XXSP,2014-09-01 16:34:00,
2014-09-01 11:39:00,75.4,66.0,29.67,SW,225,2.4,19.6,73,0.00,,,0.00,WUHU21636XXSP,2014-09-01 16:39:00,
2014-09-01 11:45:00,75.2,66.2,29.66,SW,232,1.9,10.2,74,0.00,,,0.00,WUHU21636XXSP,2014-09-01 16:45:00,
2014-09-01 11:50:00,75.0,66.0,29.67,West,270,2.9,9.6,74,0.00,,,0.00,WUHU21636XXSP,2014-09-01 16:50:00,
2014-09-01 11:55:00,75.0,66.6,29.67,SW,225,3.3,7.3,75,0.00,,,0.00,WUHU21636XXSP,2014-09-01 16:55:00,
2014-09-01 12:00:00,74.8,66.4,29.67,WSW,252,4.7,15.4,75,0.00,,,0.00,WUHU21636XXSP,2014-09-01 17:00:00,
2014-09-01 12:05:00,74.8,66.4,29.67,SW,225,3.8,15.4,75,0.00,,,0.00,WUHU21636XXSP,2014-09-01 17:05:00,
2014-09-01 12:10:00,74.8,66.7,29.67,SW,223,2.8,9.8,76,0.00,,,0.00,WUHU21636XXSP,2014-09-01 17:10:00,
2014-09-01 12:15:00,74.7,66.6,29.67,WSW,247,3.3,9.8,76,0.00,,,0.00,WUHU21636XXSP,2014-09-01 17:15:00,
2014-09-01 12:20:00,74.3,66.2,29.67,SW,225,0.8,8.9,76,0.00,,,0.00,WUHU21636XXSP,2014-09-01 17:20:00,
2014-09-01 12:25:00,74.3,66.2,29.67,SW,235,3.6,13.1,76,0.00,,,0.00,WUHU21636XXSP,2014-09-01 17:25:00,
2014-09-01 12:30:00,74.8,66.7,29.67,SW,222,5.7,13.1,76,0.00,,,0.00,WUHU21636XXSP,2014-09-01 17:30:00,
2014-09-01 12:35:00,75.6,66.9,29.67,West,264,5.2,10.2,75,0.00,,,0.00,WUHU21636XXSP,2014-09-01 17:35:00,
2014-09-01 12:40:00,75.7,67.1,29.67,SW,230,1.6,10.2,75,0.00,,,0.00,WUHU21636XXSP,2014-09-01 17:40:00,
2014-09-01 12:45:00,75.7,67.1,29.66,WSW,247,0.0,9.8,76,0.00,,,0.00,WUHU21636XXSP,2014-09-01 17:45:00,
2014-09-01 12:50:00,75.4,66.7,29.67,WSW,258,4.1,8.0,75,0.00,,,0.00,WUHU21636XXSP,2014-09-01 17:50:00,
2014-09-01 12:55:00,75.2,66.7,29.67,West,270,0.0,8.0,75,0.00,,,0.00,WUHU21636XXSP,2014-09-01 17:55:00,
2014-09-01 13:01:00,75.0,66.6,29.66,SW,225,0.0,1.7,76,0.00,,,0.00,WUHU21636XXSP,2014-09-01 18:01:00,
2014-09-01 13:06:00,75.4,67.3,29.66,WSW,255,2.4,7.3,76,0.00,,,0.00,WUHU21636XXSP,2014-09-01 18:06:00,
2014-09-01 13:11:00,76.3,68.4,29.66,SW,225,0.0,7.3,77,0.00,,,0.00,WUHU21636XXSP,2014-09-01 18:11:00,
2014-09-01 13:16:00,76.8,67.8,29.66,WSW,252,3.9,11.6,74,0.00,,,0.00,WUHU21636XXSP,2014-09-01 18:16:00,
2014-09-01 13:21:00,77.2,68.2,29.66,SW,234,2.7,11.6,74,0.00,,,0.00,WUHU21636XXSP,2014-09-01 18:21:00,
2014-09-01 13:26:00,78.1,68.2,29.66,South,180,4.9,10.5,72,0.00,,,0.00,WUHU21636XXSP,2014-09-01 18:26:00,
2014-09-01 13:31:00,78.1,67.8,29.66,SSW,202,2.9,12.0,71,0.00,,,0.00,WUHU21636XXSP,2014-09-01 18:31:00,
2014-09-01 13:36:00,77.7,67.1,29.67,West,270,7.1,13.1,70,0.00,,,0.00,WUHU21636XXSP,2014-09-01 18:36:00,
2014-09-01 13:41:00,77.2,67.1,29.67,SW,225,0.0,13.1,71,0.00,,,0.00,WUHU21636XXSP,2014-09-01 18:41:00,
2014-09-01 13:46:00,76.8,67.1,29.67,SW,225,4.2,12.7,72,0.00,,,0.00,WUHU21636XXSP,2014-09-01 18:46:00,
2014-09-01 13:54:00,76.6,66.6,29.67,SW,225,1.1,4.2,72,0.00,,,0.00,WUHU21636XXSP,2014-09-01 18:54:00,
2014-09-01 13:59:00,77.2,67.5,29.67,WSW,244,4.0,7.1,72,0.00,,,0.00,WUHU21636XXSP,2014-09-01 18:59:00,
2014-09-01 14:04:00,77.9,68.0,29.66,WSW,247,1.7,7.1,72,0.00,,,0.00,WUHU21636XXSP,2014-09-01 19:04:00,
2014-09-01 14:09:00,79.0,67.8,29.66,WSW,243,4.7,10.7,69,0.00,,,0.00,WUHU21636XXSP,2014-09-01 19:09:00,
2014-09-01 14:14:00,79.2,67.6,29.66,SW,230,3.3,13.6,68,0.00,,,0.00,WUHU21636XXSP,2014-09-01 19:14:00,
2014-09-01 14:19:00,79.7,67.6,29.66,West,270,4.9,13.6,67,0.00,,,0.00,WUHU21636XXSP,2014-09-01 19:19:00,
2014-09-01 14:24:00,79.5,67.5,29.66,West,270,0.5,11.6,67,0.00,,,0.00,WUHU21636XXSP,2014-09-01 19:24:00,
2014-09-01 14:29:00,79.9,67.5,29.66,SSW,205,1.7,6.2,66,0.00,,,0.00,WUHU21636XXSP,2014-09-01 19:29:00,
2014-09-01 14:34:00,79.9,67.5,29.66,West,266,4.4,7.3,66,0.00,,,0.00,WUHU21636XXSP,2014-09-01 19:34:00,
2014-09-01 14:39:00,79.5,67.1,29.66,SW,232,1.6,13.4,66,0.00,,,0.00,WUHU21636XXSP,2014-09-01 19:39:00,
2014-09-01 14:44:00,79.9,67.5,29.66,West,259,4.0,13.4,66,0.00,,,0.00,WUHU21636XXSP,2014-09-01 19:44:00,
2014-09-01 14:49:00,79.7,67.3,29.66,WSW,247,0.0,7.1,67,0.00,,,0.00,WUHU21636XXSP,2014-09-01 19:49:00,
2014-09-01 14:54:00,79.9,67.5,29.66,WSW,242,3.5,12.9,67,0.00,,,0.00,WUHU21636XXSP,2014-09-01 19:54:00,
2014-09-01 14:59:00,80.2,68.2,29.66,WSW,247,3.5,12.9,67,0.00,,,0.00,WUHU21636XXSP,2014-09-01 19:59:00,
2014-09-01 15:04:00,80.1,67.6,29.66,West,270,0.2,8.0,66,0.00,,,0.00,WUHU21636XXSP,2014-09-01 20:04:00,
2014-09-01 15:09:00,80.2,68.2,29.66,WSW,247,0.0,8.0,66,0.00,,,0.00,WUHU21636XXSP,2014-09-01 20:09:00,
2014-09-01 15:14:00,81.0,68.4,29.66,SW,225,0.0,6.2,66,0.00,,,0.00,WUHU21636XXSP,2014-09-01 20:14:00,
2014-09-01 15:19:00,81.5,68.0,29.66,WSW,247,0.0,0.0,64,0.00,,,0.00,WUHU21636XXSP,2014-09-01 20:19:00,
2014-09-01 15:24:00,82.0,68.0,29.65,SW,219,3.0,12.9,64,0.00,,,0.00,WUHU21636XXSP,2014-09-01 20:24:00,
2014-09-01 15:29:00,82.2,67.8,29.65,SW,225,1.2,12.9,62,0.00,,,0.00,WUHU21636XXSP,2014-09-01 20:29:00,
2014-09-01 15:34:00,82.2,67.8,29.65,SW,236,2.0,13.1,62,0.00,,,0.00,WUHU21636XXSP,2014-09-01 20:34:00,
2014-09-01 15:40:00,82.9,68.5,29.65,WNW,292,1.7,13.1,62,0.00,,,0.00,WUHU21636XXSP,2014-09-01 20:40:00,
2014-09-01 15:45:00,82.8,68.4,29.65,WSW,255,3.8,8.5,62,0.00,,,0.00,WUHU21636XXSP,2014-09-01 20:45:00,
2014-09-01 15:50:00,82.0,68.0,29.65,West,267,3.5,8.5,63,0.00,,,0.00,WUHU21636XXSP,2014-09-01 20:50:00,
2014-09-01 15:55:00,81.5,68.0,29.66,SW,233,1.0,8.7,64,0.00,,,0.00,WUHU21636XXSP,2014-09-01 20:55:00,
2014-09-01 16:00:00,80.4,67.1,29.66,SW,230,4.1,11.6,64,0.00,,,0.00,WUHU21636XXSP,2014-09-01 21:00:00,
2014-09-01 16:05:00,79.9,67.5,29.66,WSW,247,0.5,11.6,66,0.00,,,0.00,WUHU21636XXSP,2014-09-01 21:05:00,
2014-09-01 16:10:00,79.5,67.5,29.66,NNW,337,0.0,9.3,67,0.00,,,0.00,WUHU21636XXSP,2014-09-01 21:10:00,
2014-09-01 16:15:00,80.2,68.2,29.66,NNW,337,0.0,3.1,67,0.00,,,0.00,WUHU21636XXSP,2014-09-01 21:15:00,
2014-09-01 16:20:00,80.8,68.7,29.66,WSW,247,0.0,3.1,67,0.00,,,0.00,WUHU21636XXSP,2014-09-01 21:20:00,
2014-09-01 16:25:00,81.5,68.9,29.66,SW,226,1.5,8.0,66,0.00,,,0.00,WUHU21636XXSP,2014-09-01 21:25:00,
2014-09-01 16:30:00,81.7,68.5,29.66,WSW,247,0.0,8.0,65,0.00,,,0.00,WUHU21636XXSP,2014-09-01 21:30:00,
2014-09-01 16:35:00,81.3,68.7,29.67,West,270,1.3,1.3,66,0.00,,,0.00,WUHU21636XXSP,2014-09-01 21:35:00,
2014-09-01 16:41:00,80.4,68.4,29.67,West,270,0.0,7.6,67,0.00,,,0.00,WUHU21636XXSP,2014-09-01 21:41:00,
2014-09-01 16:46:00,80.2,68.7,29.67,West,270,0.0,7.6,68,0.00,,,0.00,WUHU21636XXSP,2014-09-01 21:46:00,
2014-09-01 16:51:00,80.4,69.3,29.67,WSW,247,0.0,3.1,68,0.00,,,0.00,WUHU21636XXSP,2014-09-01 21:51:00,
2014-09-01 16:56:00,79.9,68.7,29.67,North,0,0.0,8.0,69,0.00,,,0.00,WUHU21636XXSP,2014-09-01 21:56:00,
2014-09-01 17:01:00,79.5,68.4,29.67,WNW,292,0.0,8.0,69,0.00,,,0.00,WUHU21636XXSP,2014-09-01 22:01:00,
2014-09-01 17:06:00,79.2,68.0,29.67,WNW,289,2.6,2.6,69,0.00,,,0.00,WUHU21636XXSP,2014-09-01 22:06:00,
2014-09-01 17:11:00,79.0,68.4,29.68,WSW,247,0.0,2.6,70,0.00,,,0.00,WUHU21636XXSP,2014-09-01 22:11:00,
2014-09-01 17:16:00,78.8,68.2,29.68,SSW,202,7.1,12.0,70,0.00,,,0.00,WUHU21636XXSP,2014-09-01 22:16:00,
2014-09-01 17:21:00,77.9,67.6,29.68,SW,225,0.6,13.8,71,0.00,,,0.00,WUHU21636XXSP,2014-09-01 22:21:00,
2014-09-01 17:26:00,77.5,67.6,29.68,SW,225,0.4,13.8,72,0.00,,,0.00,WUHU21636XXSP,2014-09-01 22:26:00,
2014-09-01 17:31:00,77.7,68.4,29.68,WNW,292,1.3,4.6,73,0.00,,,0.00,WUHU21636XXSP,2014-09-01 22:31:00,
2014-09-01 17:36:00,78.1,68.5,29.68,WSW,247,0.0,2.9,73,0.00,,,0.00,WUHU21636XXSP,2014-09-01 22:36:00,
2014-09-01 17:41:00,78.3,68.7,29.68,WSW,247,0.0,0.0,73,0.00,,,0.00,WUHU21636XXSP,2014-09-01 22:41:00,
2014-09-01 17:46:00,78.4,68.9,29.68,SW,225,0.0,0.0,73,0.00,,,0.00,WUHU21636XXSP,2014-09-01 22:46:00,
2014-09-01 17:51:00,78.4,68.9,29.68,WSW,247,0.2,0.2,73,0.00,,,0.00,WUHU21636XXSP,2014-09-01 22:51:00,
2014-09-01 17:56:00,78.8,69.3,29.69,WSW,247,0.0,0.2,73,0.00,,,0.00,WUHU21636XXSP,2014-09-01 22:56:00,
2014-09-01 18:01:00,78.8,69.3,29.69,SW,225,4.1,4.2,73,0.00,,,0.00,WUHU21636XXSP,2014-09-01 23:01:00,
2014-09-01 18:06:00,78.4,68.9,29.69,SW,225,0.0,4.2,74,0.00,,,0.00,WUHU21636XXSP,2014-09-01 23:06:00,
2014-09-01 18:11:00,77.7,69.1,29.69,SW,225,0.0,0.0,75,0.00,,,0.00,WUHU21636XXSP,2014-09-01 23:11:00,
2014-09-01 18:16:00,77.5,68.5,29.69,South,180,0.0,0.0,74,0.00,,,0.00,WUHU21636XXSP,2014-09-01 23:16:00,
2014-09-01 18:21:00,77.2,67.8,29.70,West,270,0.9,1.3,73,0.00,,,0.00,WUHU21636XXSP,2014-09-01 23:21:00,
2014-09-01 18:26:00,77.2,67.8,29.70,West,270,0.0,1.3,73,0.00,,,0.00,WUHU21636XXSP,2014-09-01 23:26:00,
2014-09-01 18:31:00,77.2,67.8,29.70,WSW,247,1.3,1.3,72,0.00,,,0.00,WUHU21636XXSP,2014-09-01 23:31:00,
2014-09-01 18:36:00,76.8,67.5,29.70,West,270,0.0,1.3,72,0.00,,,0.00,WUHU21636XXSP,2014-09-01 23:36:00,
2014-09-01 18:41:00,76.6,66.6,29.70,WNW,292,0.0,1.3,72,0.00,,,0.00,WUHU21636XXSP,2014-09-01 23:41:00,
2014-09-01 18:46:00,76.3,65.8,29.70,West,270,0.0,8.2,70,0.00,,,0.00,WUHU21636XXSP,2014-09-01 23:46:00,
2014-09-01 18:51:00,76.3,65.8,29.70,West,270,0.0,8.2,71,0.00,,,0.00,WUHU21636XXSP,2014-09-01 23:51:00,